Location: Medlow Airstrip Trail, Medlow Bath NSW 2780, Australia
(33.6682°S, 150.3233°E)
Time: 08:25:30
(UTC+10:00)

deb Explorer IX - Visible Passes

Search period start: 23 September 2019 00:00
Search period end: 03 October 2019 00:00
Orbit: 544 x 1107 km, 38.8° (Epoch: 20 September)

Date Brightness Start Highest point End Pass type
(mag) Time Alt. Az. Time Alt. Az. Time Alt. Az.
23 Sep ? 19:05:19 10° W 19:10:36 22° NW 19:15:56 10° N visible
24 Sep ? 18:43:23 10° W 18:48:32 21° NW 18:53:47 10° N visible
25 Sep ? 18:21:30 10° W 18:26:28 21° NW 18:31:37 10° N visible
